Regional Weather Roundup
Issued by NWS Grand Forks, ND

Home | Current Version | Previous Version | Text Only | Print | Product List | Glossary Off
Versions: 1 2 3 4 5 6 7 8 9 10 11 12 13 14 15 16 17 18 19 20 21 22 23 24 25 26 27 28 29 30 31 32 33 34 35 36 37 38 39 40 41 42 43 44 45 46 47 48 49 50

000
ASUS43 KFGF 011831
RWRFGF
PRAIRIE TO PINES  WEATHER ROUNDUP
NATIONAL WEATHER SERVICE EASTERN NORTH DAKOTA/GRAND FORKS ND
100 PM CDT WED OCT 01 2014

 **SATELLITE DATA USED TO AUGMENT SKY COVER AT AUTOMATED STATIONS**
 *****  WEATHER ACROSS EASTERN NORTH DAKOTA  *****

CITY           SKY/WX    TMP DP  RH WIND       PRES   REMARKS
GRAND FORKS    CLOUDY    64  54  69 SW14G20   29.58S
6HR MIN TEMP:  58; 6HR MAX TEMP:  66; 6HR PCP: TRACE;

GRAND FRKS AFB CLOUDY    64  55  73 SW14      29.59S
GRAND FRKS NWS   N/A     64 N/A N/A W13         N/A
DEVILS LAKE    CLOUDY    61  50  67 W20       29.58R
6HR MIN TEMP:  55; 6HR MAX TEMP:  61;

FARGO          PTSUNNY   69  54  58 SW10      29.63F
WAHPETON ARPT  FAIR      68  50  52 SW12G18   29.67S
$$

 ***** WEATHER ACROSS CENTRAL AND WESTERN NORTH DAKOTA  *****

CITY           SKY/WX    TMP DP  RH WIND       PRES   REMARKS
BISMARCK       MOSUNNY   63  50  62 W24G32    29.73R
6HR MIN TEMP:  55; 6HR MAX TEMP:  64;

MINOT          CLOUDY    58  50  75 W18G28    29.63R
6HR MIN TEMP:  53; 6HR MAX TEMP:  58;

JAMESTOWN      CLOUDY    61  50  67 W17G25    29.66R
6HR MIN TEMP:  53; 6HR MAX TEMP:  63;

MINOT AFB      CLOUDY    57  54  88 NW24G30   29.62R
GARRISON         N/A     57  50  77 W18G25    29.68R
WILLISTON      CLOUDY    55  48  77 W20G26    29.73R
6HR MIN TEMP:  52; 6HR MAX TEMP:  56; 6HR PCP: TRACE;

DICKINSON      CLOUDY    53  46  77 W20       29.76R
6HR MIN TEMP:  51; 6HR MAX TEMP:  53;

HETTINGER      CLOUDY    52  46  80 W18       29.82R
6HR MIN TEMP:  50; 6HR MAX TEMP:  53;

$$

 *****  OTHER AIRPORT OBSERVATIONS IN OUR AREA  *****

CITY           SKY/WX    TMP DP  RH WIND       PRES   REMARKS
WALHALLA         N/A     61  57  88 W12G22    29.53R
GRAFTON AIRPOR MOCLDY    64  55  72 SW16G24   29.56R
VALLEY CITY AR CLOUDY    63  52  67 W21       29.66R
CANDO          CLOUDY    59  52  77 W17G26    29.58R
CAVALIER APRT  CLOUDY    64  54  68 W13G23    29.53R
GWINNER        PTCLDY    66  52  59 W15G21    29.69S
ROLLA          CLOUDY    55  52  88 W15G22    29.58R
 ***** THE ABOVE OBSERVATIONS ARE NON NWS ARE NOT QUALITY
       CONTROLLED AND MAY MIS-REPORT RAIN FOR SNOW...
$$

  *****  WEATHER ACROSS NORTHERN MINNESOTA  *****

CITY           SKY/WX    TMP DP  RH WIND       PRES   REMARKS
FLAG ISLAND    CLOUDY    59  55  88 S18       29.57S
WARROAD        PTSUNNY   66  57  72 S17G23    29.58F
ROSEAU         FAIR      66  55  68 SW20G26   29.57F
HALLOCK        FAIR      66  55  68 SW21G29   29.53F
THF RVR FALLS  CLOUDY    66  52  59 S17       29.60F
6HR MIN TEMP:  61; 6HR MAX TEMP:  66;

BAUDETTE       CLOUDY    59  53  80 S15G24    29.63F
6HR MIN TEMP:  52; 6HR MAX TEMP:  59;

WASKISH        CLOUDY    57  52  82 SE13G20   29.67F
CROOKSTON      CLOUDY    64  54  68 SW14G23   29.61S
STEPHEN NDAWN    N/A     64  55  72 SW14        N/A
GREENBUSH NDAW   N/A     64  55  72 S15         N/A
$$
  *****  WEATHER ACROSS CENTRAL AND WEST MINNESOTA  *****

CITY           SKY/WX    TMP DP  RH WIND       PRES   REMARKS
FOSSTON        CLOUDY    63  54  72 S15       29.63F
BEMIDJI        CLOUDY    56  51  86 S12       29.69F
PARK RAPIDS    CLOUDY    53  51  93 SE15      29.71F FOG
6HR MIN TEMP:  51; 6HR MAX TEMP:  54;

ELBOW LAKE     MOCLDY    64  59  84 S8        29.69F
6HR MIN TEMP:  56; 6HR MAX TEMP:  65;

WADENA         CLOUDY    55  52  88 S10       29.71F FOG
DETROIT LAKES  CLOUDY    63  55  77 S12       29.68F
MOORHEAD       NOT AVBL
FERGUS FALLS   FAIR      66  55  68 S10       29.67F
MORRIS MN      FAIR      70  61  73 S10       29.68F
STAPLES        CLOUDY    52  50  93 SE7       29.74S FOG
$$
  *****  WEATHER ELSEWHERE ACROSS MINNESOTA  *****

CITY           SKY/WX    TMP DP  RH WIND       PRES   REMARKS
DULUTH         LGT RAIN  49  46  90 SE12      29.82F FOG
6HR MIN TEMP:  47; 6HR MAX TEMP:  49; 6HR PCP:  0.37;

INTRNTL FALLS  CLOUDY    52  47  83 VRB7G17   29.72S
6HR MIN TEMP:  51; 6HR MAX TEMP:  53;

ELY            LGT RAIN  48  46  93 S6        29.80F
CLOQUET        RAIN      48  46  93 SE6       29.80F
WHEATON        FAIR      68  54  60 SW12      29.70S
BRAINERD       CLOUDY    52  49  89 S9        29.76F
6HR MIN TEMP:  49; 6HR MAX TEMP:  52;

HIBBING        LGT RAIN  50  47  89 S8        29.79F
6HR MIN TEMP:  49; 6HR MAX TEMP:  50; 6HR PCP:  0.01;

ALEXANDRIA     CLOUDY    58  56  93 S8        29.74S FOG
6HR MIN TEMP:  54; 6HR MAX TEMP:  58;

SAINT CLOUD    CLOUDY    55  51  86 SE12      29.77F
6HR MIN TEMP:  52; 6HR MAX TEMP:  55; 6HR PCP:  0.01;

MINNEAPOLIS    CLOUDY    51  50  96 SE5       29.82S
6HR MIN TEMP:  50; 6HR MAX TEMP:  51; 6HR PCP:  0.66;

$$

  *****  WEATHER ACROSS SOUTH DAKOTA  *****

CITY           SKY/WX    TMP DP  RH WIND       PRES   REMARKS
SIOUX FALLS    PTSUNNY   70  59  68 VRB6      29.73S
6HR MIN TEMP:  63; 6HR MAX TEMP:  71; 6HR PCP: TRACE;

BROOKINGS      NOT AVBL
WATERTOWN      FAIR      68  53  58 W10       29.71F
6HR MIN TEMP:  60; 6HR MAX TEMP:  70;

HURON          SUNNY     71  51  49 NW12      29.73S
6HR MIN TEMP:  60; 6HR MAX TEMP:  71;

SISSETON         N/A     69  55  60 W8        29.68F
ABERDEEN       SUNNY     68  51  54 NW12      29.72R
6HR MIN TEMP:  53; 6HR MAX TEMP:  69;

MITCHELL       SUNNY     72  52  49 NW10      29.74S
PIERRE         MOSUNNY   68  50  52 W14G20    29.78S
6HR MIN TEMP:  53; 6HR MAX TEMP:  68;

MOBRIDGE       MOSUNNY   66  50  56 NW18G25   29.74R
RAPID CITY     CLOUDY    58  43  57 N22G30    29.87R
6HR MIN TEMP:  47; 6HR MAX TEMP:  60;

$$

  *****  SOME WEATHER IN NEARBY STATES *****

CITY           SKY/WX    TMP DP  RH WIND       PRES   REMARKS
GLASGOW MT     CLOUDY    54  43  66 NW18G28   29.83R
6HR MIN TEMP:  49; 6HR MAX TEMP:  54;

GREAT FALLS MT MOSUNNY   55  37  50 SW16G24   29.96F
6HR MIN TEMP:  43; 6HR MAX TEMP:  56; 6HR PCP: TRACE;

CHEYENNE WY    MOSUNNY   60  33  36 VRB3G17   29.91F
6HR MIN TEMP:  47; 6HR MAX TEMP:  61;

SCOTTSBLUFF NE SUNNY     63  45  51 NW8G16    29.89S
6HR MIN TEMP:  43; 6HR MAX TEMP:  63;

OMAHA NE       PTSUNNY   72  63  73 SE6       29.75F
6HR MIN TEMP:  62; 6HR MAX TEMP:  72; 6HR PCP:  0.01;

DES MOINES IA  CLOUDY    69  63  81 S10       29.78F
6HR MIN TEMP:  59; 6HR MAX TEMP:  69; 6HR PCP:  0.18;

DAVENPORT IA   NOT AVBL
CHICAGO IL     FAIR      65  49  56 S8        29.98F
6HR MIN TEMP:  50; 6HR MAX TEMP:  65;

EAU CLAIRE WI  LGT RAIN  51  48  89 SE7       29.84F
6HR MIN TEMP:  47; 6HR MAX TEMP:  51; 6HR PCP:  0.36;

LA CROSSE WI   PTSUNNY   60  51  72 SE5       29.85F
6HR MIN TEMP:  51; 6HR MAX TEMP:  60; 6HR PCP: TRACE;

$$

  *****  SOME NATIONAL WEATHER *****

CITY           SKY/WX    TMP DP  RH WIND       PRES   REMARKS
LA GUARDIA NY  CLOUDY    64  59  82 N7        30.03S
6HR MIN TEMP:  61; 6HR MAX TEMP:  65; 6HR PCP: TRACE;

RALEIGH NC     PTSUNNY   74  61  63 CALM      30.02F
6HR MIN TEMP:  59; 6HR MAX TEMP:  74;

ATLANTA GA     FAIR      82  58  43 CALM      30.01F
6HR MIN TEMP:  64; 6HR MAX TEMP:  83;

NEW ORLEANS LA PTSUNNY   80  72  76 SE8       29.92F
6HR MIN TEMP:  76; 6HR MAX TEMP:  82; 6HR PCP: TRACE;

OKLAHOMA CITY  CLOUDY    87  65  47 S18G24    29.74F
6HR MIN TEMP:  70; 6HR MAX TEMP:  89;

ALBUQUERQUE NM MOSUNNY   68  35  29 SW9       29.99F
6HR MIN TEMP:  48; 6HR MAX TEMP:  68;

SALT LAKE CITY PTSUNNY   51  37  58 W7        30.10R
6HR MIN TEMP:  48; 6HR MAX TEMP:  53;

LOS ANGELES CA MOSUNNY   74  61  63 SE3       29.83S
6HR MIN TEMP:  63; 6HR MAX TEMP:  74;



USA.gov is the U.S. government's official web portal to all federal, state and local government web resources and services.